Time,TemperatureF,DewpointF,PressureIn,WindDirection,WindDirectionDegrees,WindSpeedMPH,WindSpeedGustMPH,Humidity,HourlyPrecipIn,Conditions,Clouds,dailyrainin,SoftwareType,DateUTC
2013-03-29 00:01:00,37.2,35.9,29.98,SW,236,0.0,1.0,95,0.00,,---,0.00,VWS V14.01,2013-03-29 07:01:00,
2013-03-29 00:06:00,37.0,35.7,29.98,SW,236,0.0,0.0,95,0.00,,---,0.00,VWS V14.01,2013-03-29 07:06:00,
2013-03-29 00:11:00,36.7,35.4,29.99,SW,236,0.0,0.0,95,0.00,,---,0.00,VWS V14.01,2013-03-29 07:11:00,
2013-03-29 00:16:00,36.6,35.3,29.98,SW,236,0.0,0.0,95,0.00,,---,0.00,VWS V14.01,2013-03-29 07:16:00,
2013-03-29 00:21:00,36.5,35.2,29.98,SW,236,0.0,0.0,95,0.00,,---,0.00,VWS V14.01,2013-03-29 07:21:00,
2013-03-29 00:26:00,36.4,35.1,29.99,SW,236,0.0,0.0,95,0.00,,---,0.00,VWS V14.01,2013-03-29 07:26:00,
2013-03-29 00:31:00,36.4,35.1,29.99,SW,236,0.0,0.0,95,0.00,,---,0.00,VWS V14.01,2013-03-29 07:31:00,
2013-03-29 00:36:00,36.4,35.1,29.99,SW,236,0.0,0.0,95,0.00,,---,0.00,VWS V14.01,2013-03-29 07:36:00,
2013-03-29 00:41:00,36.3,35.0,29.99,SW,236,0.0,0.0,95,0.00,,---,0.00,VWS V14.01,2013-03-29 07:41:00,
2013-03-29 00:46:00,36.2,34.9,29.99,SW,236,0.0,0.0,95,0.00,,---,0.00,VWS V14.01,2013-03-29 07:46:00,
2013-03-29 00:51:00,35.9,34.6,29.99,SW,236,0.0,0.0,95,0.00,,---,0.00,VWS V14.01,2013-03-29 07:51:00,
2013-03-29 00:56:00,35.7,34.4,29.99,SW,236,0.0,0.0,95,0.00,,---,0.00,VWS V14.01,2013-03-29 07:56:00,
2013-03-29 01:01:00,35.5,34.5,29.99,SW,236,0.0,0.0,96,0.00,,---,0.00,VWS V14.01,2013-03-29 08:01:00,
2013-03-29 01:05:00,35.4,34.4,29.99,SW,236,0.0,0.0,96,0.00,,---,0.00,VWS V14.01,2013-03-29 08:05:00,
2013-03-29 01:10:00,35.4,34.4,29.99,SW,236,0.0,0.0,96,0.00,,---,0.00,VWS V14.01,2013-03-29 08:10:00,
2013-03-29 01:15:00,35.2,34.2,29.99,SW,236,0.0,0.0,96,0.00,,---,0.00,VWS V14.01,2013-03-29 08:15:00,
2013-03-29 01:20:00,35.3,34.3,30.00,SW,236,0.0,0.0,96,0.00,,---,0.00,VWS V14.01,2013-03-29 08:20:00,
2013-03-29 01:25:00,35.1,34.1,29.99,SW,236,0.0,0.0,96,0.00,,---,0.00,VWS V14.01,2013-03-29 08:25:00,
2013-03-29 01:30:00,34.9,33.9,30.00,SW,236,0.0,0.0,96,0.00,,---,0.00,VWS V14.01,2013-03-29 08:30:00,
2013-03-29 01:35:00,34.9,33.9,30.00,SW,236,0.0,0.0,96,0.00,,---,0.00,VWS V14.01,2013-03-29 08:35:00,
2013-03-29 01:40:00,34.8,33.8,30.00,SW,236,0.0,0.0,96,0.00,,---,0.00,VWS V14.01,2013-03-29 08:40:00,
2013-03-29 01:45:00,34.7,33.7,30.00,SW,236,0.0,0.0,96,0.00,,---,0.00,VWS V14.01,2013-03-29 08:45:00,
2013-03-29 01:50:00,34.7,33.7,30.00,SW,236,0.0,0.0,96,0.00,,---,0.00,VWS V14.01,2013-03-29 08:50:00,
2013-03-29 01:55:00,34.7,33.7,30.00,SW,236,0.0,0.0,96,0.00,,---,0.00,VWS V14.01,2013-03-29 08:55:00,
2013-03-29 02:00:00,34.6,33.6,30.00,SW,236,0.0,0.0,96,0.00,,---,0.00,VWS V14.01,2013-03-29 09:00:00,
2013-03-29 02:05:00,34.4,33.4,30.00,SW,236,0.0,0.0,96,0.00,,---,0.00,VWS V14.01,2013-03-29 09:05:00,
2013-03-29 02:10:00,34.1,33.1,30.00,SW,236,0.0,0.0,96,0.00,,---,0.00,VWS V14.01,2013-03-29 09:10:00,
2013-03-29 02:15:00,34.0,33.0,30.00,SW,236,0.0,0.0,96,0.00,,---,0.00,VWS V14.01,2013-03-29 09:15:00,
2013-03-29 02:20:00,33.7,32.7,30.00,SW,236,0.0,0.0,96,0.00,,---,0.00,VWS V14.01,2013-03-29 09:20:00,
2013-03-29 02:25:00,33.5,32.5,30.00,SW,236,0.0,0.0,96,0.00,,---,0.00,VWS V14.01,2013-03-29 09:25:00,
2013-03-29 02:30:00,33.4,32.4,30.01,SW,236,0.0,0.0,96,0.00,,---,0.00,VWS V14.01,2013-03-29 09:30:00,
2013-03-29 02:35:00,33.3,32.3,30.01,SW,236,0.0,0.0,96,0.00,,---,0.00,VWS V14.01,2013-03-29 09:35:00,
2013-03-29 02:40:00,33.2,32.2,30.01,SW,236,0.0,0.0,96,0.00,,---,0.00,VWS V14.01,2013-03-29 09:40:00,
2013-03-29 02:45:00,33.2,32.2,30.00,SW,236,0.0,0.0,96,0.00,,---,0.00,VWS V14.01,2013-03-29 09:45:00,
2013-03-29 02:50:00,33.3,32.3,30.00,SW,236,0.0,0.0,96,0.00,,---,0.00,VWS V14.01,2013-03-29 09:50:00,
2013-03-29 02:55:00,33.4,32.4,30.01,SW,236,0.0,0.0,96,0.00,,---,0.00,VWS V14.01,2013-03-29 09:55:00,
2013-03-29 03:00:00,33.4,32.4,30.01,SW,236,0.0,0.0,96,0.00,,---,0.00,VWS V14.01,2013-03-29 10:00:00,
2013-03-29 03:05:00,33.4,32.4,30.01,SW,236,0.0,0.0,96,0.00,,---,0.00,VWS V14.01,2013-03-29 10:05:00,
2013-03-29 03:10:00,33.3,32.3,30.01,SW,236,0.0,0.0,96,0.00,,---,0.00,VWS V14.01,2013-03-29 10:10:00,
2013-03-29 03:15:00,33.2,32.2,30.01,SW,236,0.0,0.0,96,0.00,,---,0.00,VWS V14.01,2013-03-29 10:15:00,
2013-03-29 03:20:00,33.3,32.3,30.01,SW,236,0.0,0.0,96,0.00,,---,0.00,VWS V14.01,2013-03-29 10:20:00,
2013-03-29 03:25:00,33.1,32.3,30.01,SW,236,0.0,0.0,97,0.00,,---,0.00,VWS V14.01,2013-03-29 10:25:00,
2013-03-29 03:30:00,33.0,32.0,30.01,SW,236,0.0,0.0,96,0.00,,---,0.00,VWS V14.01,2013-03-29 10:30:00,
2013-03-29 03:35:00,32.9,31.9,30.01,SW,236,0.0,0.0,96,0.00,,---,0.00,VWS V14.01,2013-03-29 10:35:00,
2013-03-29 03:40:00,32.7,31.9,30.01,SW,236,0.0,0.0,97,0.00,,---,0.00,VWS V14.01,2013-03-29 10:40:00,
2013-03-29 03:45:00,32.6,31.8,30.01,SW,236,0.0,0.0,97,0.00,,---,0.00,VWS V14.01,2013-03-29 10:45:00,
2013-03-29 03:50:00,32.4,31.4,30.01,SW,236,0.0,0.0,96,0.00,,---,0.00,VWS V14.01,2013-03-29 10:50:00,
2013-03-29 03:55:00,32.3,31.5,30.01,SW,236,0.0,0.0,97,0.00,,---,0.00,VWS V14.01,2013-03-29 10:55:00,
2013-03-29 04:00:00,32.1,31.4,30.01,SW,236,0.0,0.0,97,0.00,,---,0.00,VWS V14.01,2013-03-29 11:00:00,
2013-03-29 04:05:00,32.1,31.4,30.02,SW,236,0.0,0.0,97,0.00,,---,0.00,VWS V14.01,2013-03-29 11:05:00,
2013-03-29 04:10:00,32.0,31.2,30.02,SW,236,0.0,0.0,97,0.00,,---,0.00,VWS V14.01,2013-03-29 11:10:00,
2013-03-29 04:15:00,31.9,31.1,30.02,SW,236,0.0,0.0,97,0.00,,---,0.00,VWS V14.01,2013-03-29 11:15:00,
2013-03-29 04:20:00,31.7,31.0,30.02,SW,236,0.0,0.0,97,0.00,,---,0.00,VWS V14.01,2013-03-29 11:20:00,
2013-03-29 04:25:00,31.7,31.0,30.02,SW,236,0.0,0.0,97,0.00,,---,0.00,VWS V14.01,2013-03-29 11:25:00,
2013-03-29 04:30:00,31.9,31.1,30.02,SW,236,0.0,0.0,97,0.00,,---,0.00,VWS V14.01,2013-03-29 11:30:00,
2013-03-29 04:35:00,31.9,31.1,30.02,SW,236,0.0,0.0,97,0.00,,---,0.00,VWS V14.01,2013-03-29 11:35:00,
2013-03-29 04:40:00,31.9,31.1,30.02,SW,236,0.0,0.0,97,0.00,,---,0.00,VWS V14.01,2013-03-29 11:40:00,
2013-03-29 04:45:00,31.7,31.0,30.02,SW,236,0.0,0.0,97,0.00,,---,0.00,VWS V14.01,2013-03-29 11:45:00,
2013-03-29 04:50:00,31.5,30.8,30.02,SW,236,0.0,0.0,97,0.00,,---,0.00,VWS V14.01,2013-03-29 11:50:00,
2013-03-29 04:55:00,31.5,30.8,30.02,SW,236,0.0,0.0,97,0.00,,---,0.00,VWS V14.01,2013-03-29 11:55:00,
2013-03-29 05:00:00,31.6,30.9,30.02,SW,236,0.0,0.0,97,0.00,,---,0.00,VWS V14.01,2013-03-29 12:00:00,
2013-03-29 05:05:00,31.6,30.9,30.02,SW,236,0.0,0.0,97,0.00,,---,0.00,VWS V14.01,2013-03-29 12:05:00,
2013-03-29 05:10:00,31.5,30.8,30.03,SW,236,0.0,0.0,97,0.00,,---,0.00,VWS V14.01,2013-03-29 12:10:00,
2013-03-29 05:15:00,31.4,30.6,30.03,SW,236,0.0,0.0,97,0.00,,---,0.00,VWS V14.01,2013-03-29 12:15:00,
2013-03-29 05:20:00,31.2,30.5,30.03,SW,236,0.0,0.0,97,0.00,,---,0.00,VWS V14.01,2013-03-29 12:20:00,
2013-03-29 05:25:00,31.3,30.5,30.03,SW,236,0.0,0.0,97,0.00,,---,0.00,VWS V14.01,2013-03-29 12:25:00,
2013-03-29 05:30:00,31.1,30.4,30.03,SW,236,0.0,0.0,97,0.00,,---,0.00,VWS V14.01,2013-03-29 12:30:00,
2013-03-29 05:35:00,31.2,30.5,30.04,SW,236,0.0,0.0,97,0.00,,---,0.00,VWS V14.01,2013-03-29 12:35:00,
2013-03-29 05:40:00,30.9,30.1,30.03,SW,236,0.0,0.0,97,0.00,,---,0.00,VWS V14.01,2013-03-29 12:40:00,
2013-03-29 05:45:00,30.7,30.0,30.03,SW,236,0.0,0.0,97,0.00,,---,0.00,VWS V14.01,2013-03-29 12:45:00,
2013-03-29 05:50:00,30.5,29.8,30.04,SW,236,0.0,0.0,97,0.00,,---,0.00,VWS V14.01,2013-03-29 12:50:00,
2013-03-29 05:55:00,30.3,29.5,30.04,SW,236,0.0,0.0,97,0.00,,---,0.00,VWS V14.01,2013-03-29 12:55:00,
2013-03-29 06:00:00,30.3,29.5,30.04,SW,236,0.0,0.0,97,0.00,,---,0.00,VWS V14.01,2013-03-29 13:00:00,
2013-03-29 06:05:00,30.4,29.6,30.04,SW,236,0.0,0.0,97,0.00,,---,0.00,VWS V14.01,2013-03-29 13:05:00,
2013-03-29 06:10:00,30.3,29.5,30.04,SW,236,0.0,0.0,97,0.00,,---,0.00,VWS V14.01,2013-03-29 13:10:00,
2013-03-29 06:15:00,30.1,29.4,30.04,SW,236,0.0,0.0,97,0.00,,---,0.00,VWS V14.01,2013-03-29 13:15:00,
2013-03-29 06:21:00,30.1,29.4,30.04,SW,236,0.0,0.0,97,0.00,,---,0.00,VWS V14.01,2013-03-29 13:21:00,
2013-03-29 06:26:00,30.2,29.5,30.04,SW,236,0.0,0.0,97,0.00,,---,0.00,VWS V14.01,2013-03-29 13:26:00,
2013-03-29 06:31:00,30.1,29.4,30.05,SW,236,0.0,0.0,97,0.00,,---,0.00,VWS V14.01,2013-03-29 13:31:00,
2013-03-29 06:36:00,30.0,29.2,30.05,SW,236,0.0,0.0,97,0.00,,---,0.00,VWS V14.01,2013-03-29 13:36:00,
2013-03-29 06:40:00,29.7,29.0,30.05,SW,236,0.0,0.0,97,0.00,,---,0.00,VWS V14.01,2013-03-29 13:40:00,
2013-03-29 06:45:00,29.8,29.0,30.05,SW,236,0.0,0.0,97,0.00,,---,0.00,VWS V14.01,2013-03-29 13:45:00,
2013-03-29 06:50:00,29.7,29.0,30.05,SW,236,0.0,0.0,97,0.00,,---,0.00,VWS V14.01,2013-03-29 13:50:00,
2013-03-29 06:56:00,29.7,29.0,30.05,SW,236,0.0,0.0,97,0.00,,---,0.00,VWS V14.01,2013-03-29 13:56:00,
2013-03-29 07:00:00,30.1,29.4,30.05,SW,236,0.0,0.0,97,0.00,,---,0.00,VWS V14.01,2013-03-29 14:00:00,
2013-03-29 07:06:00,30.1,29.4,30.05,SW,236,0.0,0.0,97,0.00,,---,0.00,VWS V14.01,2013-03-29 14:06:00,
2013-03-29 07:10:00,30.5,29.8,30.06,SW,236,0.0,0.0,97,0.00,,---,0.00,VWS V14.01,2013-03-29 14:10:00,
2013-03-29 07:15:00,30.6,29.9,30.06,SW,236,0.0,0.0,97,0.00,,---,0.00,VWS V14.01,2013-03-29 14:15:00,
2013-03-29 07:20:00,30.6,29.9,30.06,SW,236,0.0,0.0,97,0.00,,---,0.00,VWS V14.01,2013-03-29 14:20:00,
2013-03-29 07:25:00,30.9,30.1,30.06,SW,236,0.0,0.0,97,0.00,,---,0.00,VWS V14.01,2013-03-29 14:25:00,
2013-03-29 07:30:00,31.2,30.5,30.06,SW,236,0.0,0.0,97,0.00,,---,0.00,VWS V14.01,2013-03-29 14:30:00,
2013-03-29 07:35:00,31.7,31.0,30.06,SW,236,0.0,0.0,97,0.00,,---,0.00,VWS V14.01,2013-03-29 14:35:00,
2013-03-29 07:40:00,32.0,31.5,30.06,SW,236,0.0,0.0,98,0.00,,---,0.00,VWS V14.01,2013-03-29 14:40:00,
2013-03-29 07:45:00,32.4,31.6,30.07,SW,236,0.0,0.0,97,0.00,,---,0.00,VWS V14.01,2013-03-29 14:45:00,
2013-03-29 07:50:00,32.8,32.3,30.07,SW,236,0.0,0.0,98,0.00,,---,0.00,VWS V14.01,2013-03-29 14:50:00,
2013-03-29 07:55:00,33.6,33.1,30.06,SW,236,0.0,0.0,98,0.00,,---,0.00,VWS V14.01,2013-03-29 14:55:00,
2013-03-29 08:00:00,34.2,33.7,30.06,SW,236,0.0,0.0,98,0.00,,---,0.00,VWS V14.01,2013-03-29 15:00:00,
2013-03-29 08:05:00,35.0,34.5,30.07,SW,236,0.0,0.0,98,0.00,,---,0.00,VWS V14.01,2013-03-29 15:05:00,
2013-03-29 08:10:00,36.1,35.6,30.07,SW,236,0.0,0.0,98,0.00,,---,0.00,VWS V14.01,2013-03-29 15:10:00,
2013-03-29 08:15:00,37.4,36.9,30.07,SW,236,0.0,0.0,98,0.00,,---,0.00,VWS V14.01,2013-03-29 15:15:00,
2013-03-29 08:20:00,38.9,38.4,30.07,SW,236,0.0,0.0,98,0.00,,---,0.00,VWS V14.01,2013-03-29 15:20:00,
2013-03-29 08:25:00,40.2,39.7,30.07,SW,236,0.0,0.0,98,0.00,,---,0.00,VWS V14.01,2013-03-29 15:25:00,
2013-03-29 08:30:00,40.9,40.4,30.07,SW,236,0.0,0.0,98,0.00,,---,0.00,VWS V14.01,2013-03-29 15:30:00,
2013-03-29 08:35:00,41.8,41.3,30.07,SW,236,0.0,0.0,98,0.00,,---,0.00,VWS V14.01,2013-03-29 15:35:00,
2013-03-29 08:40:00,42.5,42.0,30.07,SW,236,0.0,0.0,98,0.00,,---,0.00,VWS V14.01,2013-03-29 15:40:00,
2013-03-29 08:45:00,43.2,42.4,30.07,SW,236,0.0,0.0,97,0.00,,---,0.00,VWS V14.01,2013-03-29 15:45:00,
2013-03-29 08:50:00,43.9,42.6,30.07,SW,236,0.0,0.0,95,0.00,,---,0.00,VWS V14.01,2013-03-29 15:50:00,
2013-03-29 08:55:00,44.6,42.4,30.07,SW,236,0.0,0.0,92,0.00,,---,0.00,VWS V14.01,2013-03-29 15:55:00,
2013-03-29 09:00:00,45.2,42.5,30.08,SW,236,2.0,2.0,90,0.00,,---,0.00,VWS V14.01,2013-03-29 16:00:00,
2013-03-29 09:05:00,45.6,42.0,30.08,SW,236,0.0,3.0,87,0.00,,---,0.00,VWS V14.01,2013-03-29 16:05:00,
2013-03-29 09:10:00,45.9,41.7,30.08,SSE,157,2.0,6.0,85,0.00,,---,0.00,VWS V14.01,2013-03-29 16:10:00,
2013-03-29 09:15:00,46.0,41.8,30.08,SSE,157,1.0,6.0,85,0.00,,---,0.00,VWS V14.01,2013-03-29 16:15:00,
2013-03-29 09:20:00,46.1,41.8,30.08,SSE,163,2.0,6.0,85,0.00,,---,0.00,VWS V14.01,2013-03-29 16:20:00,
2013-03-29 09:25:00,46.5,41.9,30.08,SW,236,0.0,6.0,84,0.00,,---,0.00,VWS V14.01,2013-03-29 16:25:00,
2013-03-29 09:30:00,46.9,42.0,30.08,SW,223,0.0,6.0,83,0.00,,---,0.00,VWS V14.01,2013-03-29 16:30:00,
2013-03-29 09:35:00,46.9,42.0,30.08,SW,224,0.0,6.0,83,0.00,,---,0.00,VWS V14.01,2013-03-29 16:35:00,
2013-03-29 09:40:00,47.3,41.8,30.08,SW,221,2.0,6.0,81,0.00,,---,0.00,VWS V14.01,2013-03-29 16:40:00,
2013-03-29 09:45:00,47.5,42.0,30.08,SW,231,0.0,6.0,81,0.00,,---,0.00,VWS V14.01,2013-03-29 16:45:00,
2013-03-29 09:50:00,47.6,41.8,30.08,SW,222,0.0,6.0,80,0.00,,---,0.00,VWS V14.01,2013-03-29 16:50:00,
2013-03-29 09:55:00,47.7,41.8,30.08,SW,217,1.0,6.0,80,0.00,,---,0.00,VWS V14.01,2013-03-29 16:55:00,
2013-03-29 10:00:00,48.5,42.3,30.08,SW,214,1.0,6.0,79,0.00,,---,0.00,VWS V14.01,2013-03-29 17:00:00,
2013-03-29 10:05:00,48.8,42.3,30.08,SW,217,2.0,4.0,78,0.00,,---,0.00,VWS V14.01,2013-03-29 17:05:00,
2013-03-29 10:10:00,48.5,42.0,30.08,SW,222,2.0,4.0,78,0.00,,---,0.00,VWS V14.01,2013-03-29 17:10:00,
2013-03-29 10:15:00,49.1,42.2,30.08,SSW,202,1.0,4.0,77,0.00,,---,0.00,VWS V14.01,2013-03-29 17:15:00,
2013-03-29 10:20:00,49.6,43.0,30.08,SW,223,2.0,4.0,78,0.00,,---,0.00,VWS V14.01,2013-03-29 17:20:00,
2013-03-29 10:25:00,49.8,42.9,30.08,SSW,206,3.0,7.0,77,0.00,,---,0.00,VWS V14.01,2013-03-29 17:25:00,
2013-03-29 10:30:00,49.8,42.2,30.08,South,184,4.0,7.0,75,0.00,,---,0.00,VWS V14.01,2013-03-29 17:30:00,
2013-03-29 10:35:00,50.3,42.7,30.08,SSW,211,0.0,7.0,75,0.00,,---,0.00,VWS V14.01,2013-03-29 17:35:00,
2013-03-29 10:40:00,50.7,42.7,30.08,SSE,157,1.0,7.0,74,0.00,,---,0.00,VWS V14.01,2013-03-29 17:40:00,
2013-03-29 10:45:00,50.8,42.5,30.08,South,187,2.0,7.0,73,0.00,,---,0.00,VWS V14.01,2013-03-29 17:45:00,
2013-03-29 10:50:00,51.9,43.2,30.08,SW,235,6.0,8.0,72,0.00,,---,0.00,VWS V14.01,2013-03-29 17:50:00,
2013-03-29 10:55:00,51.4,42.3,30.08,SSW,211,3.0,8.0,71,0.00,,---,0.00,VWS V14.01,2013-03-29 17:55:00,
2013-03-29 11:00:00,52.1,42.2,30.08,South,186,1.0,8.0,69,0.00,,---,0.00,VWS V14.01,2013-03-29 18:00:00,
2013-03-29 11:05:00,52.9,43.0,30.08,South,170,2.0,9.0,69,0.00,,---,0.00,VWS V14.01,2013-03-29 18:05:00,
2013-03-29 11:10:00,52.4,42.5,30.08,SW,232,3.0,9.0,69,0.00,,---,0.00,VWS V14.01,2013-03-29 18:10:00,
2013-03-29 11:15:00,53.5,43.2,30.08,WSW,245,2.0,9.0,68,0.00,,---,0.00,VWS V14.01,2013-03-29 18:15:00,
2013-03-29 11:20:00,53.0,42.3,30.08,West,279,1.0,9.0,67,0.00,,---,0.00,VWS V14.01,2013-03-29 18:20:00,
2013-03-29 11:25:00,53.9,42.4,30.08,SW,219,2.0,9.0,65,0.00,,---,0.00,VWS V14.01,2013-03-29 18:25:00,
2013-03-29 11:30:00,54.1,42.2,30.08,SSW,196,4.0,9.0,64,0.00,,---,0.00,VWS V14.01,2013-03-29 18:30:00,
2013-03-29 11:35:00,54.3,42.4,30.08,SE,138,5.0,9.0,64,0.00,,---,0.00,VWS V14.01,2013-03-29 18:35:00,
2013-03-29 11:40:00,54.9,42.6,30.08,SSW,193,2.0,9.0,63,0.00,,---,0.00,VWS V14.01,2013-03-29 18:40:00,
2013-03-29 11:45:00,54.5,40.9,30.08,SW,236,3.0,9.0,60,0.00,,---,0.00,VWS V14.01,2013-03-29 18:45:00,
2013-03-29 11:50:00,53.8,41.5,30.08,WSW,238,4.0,9.0,63,0.00,,---,0.00,VWS V14.01,2013-03-29 18:50:00,
2013-03-29 11:55:00,54.5,40.9,30.08,West,267,7.0,9.0,60,0.00,,---,0.00,VWS V14.01,2013-03-29 18:55:00,
2013-03-29 12:00:00,54.1,40.5,30.08,South,178,5.0,9.0,60,0.00,,---,0.00,VWS V14.01,2013-03-29 19:00:00,
2013-03-29 12:05:00,55.0,41.0,30.08,SSW,205,3.0,7.0,59,0.00,,---,0.00,VWS V14.01,2013-03-29 19:05:00,
2013-03-29 12:10:00,55.5,41.0,30.08,SW,216,4.0,8.0,58,0.00,,---,0.00,VWS V14.01,2013-03-29 19:10:00,
2013-03-29 12:15:00,56.1,41.5,30.08,South,178,1.0,8.0,58,0.00,,---,0.00,VWS V14.01,2013-03-29 19:15:00,
2013-03-29 12:20:00,56.5,40.1,30.08,SSW,210,3.0,9.0,54,0.00,,---,0.00,VWS V14.01,2013-03-29 19:20:00,
2013-03-29 12:25:00,55.2,40.2,30.08,WSW,249,2.0,9.0,57,0.00,,---,0.00,VWS V14.01,2013-03-29 19:25:00,
2013-03-29 12:30:00,55.7,42.0,30.08,SSE,165,1.0,9.0,60,0.00,,---,0.00,VWS V14.01,2013-03-29 19:30:00,
2013-03-29 12:35:00,56.3,41.3,30.08,SSW,205,5.0,9.0,57,0.00,,---,0.00,VWS V14.01,2013-03-29 19:35:00,
2013-03-29 12:40:00,57.2,41.7,30.08,SSW,198,3.0,9.0,56,0.00,,---,0.00,VWS V14.01,2013-03-29 19:40:00,
2013-03-29 12:45:00,56.7,41.7,30.08,South,171,2.0,9.0,57,0.00,,---,0.00,VWS V14.01,2013-03-29 19:45:00,
2013-03-29 12:50:00,58.0,41.5,30.07,SSE,151,4.0,9.0,54,0.00,,---,0.00,VWS V14.01,2013-03-29 19:50:00,
2013-03-29 12:55:00,57.5,40.0,30.08,SW,225,2.0,9.0,52,0.00,,---,0.00,VWS V14.01,2013-03-29 19:55:00,
2013-03-29 13:00:00,56.8,40.8,30.08,WSW,246,5.0,9.0,55,0.00,,---,0.00,VWS V14.01,2013-03-29 20:00:00,
2013-03-29 13:05:00,56.2,40.7,30.07,ESE,105,2.0,9.0,56,0.00,,---,0.00,VWS V14.01,2013-03-29 20:05:00,
2013-03-29 13:10:00,56.2,39.3,30.07,SSW,203,8.0,9.0,53,0.00,,---,0.00,VWS V14.01,2013-03-29 20:10:00,
2013-03-29 13:15:00,57.2,38.8,30.07,SW,234,1.0,9.0,50,0.00,,---,0.00,VWS V14.01,2013-03-29 20:15:00,
2013-03-29 13:20:00,57.4,39.9,30.07,SSE,163,2.0,12.0,52,0.00,,---,0.00,VWS V14.01,2013-03-29 20:20:00,
2013-03-29 13:25:00,58.1,40.6,30.07,WSW,244,7.0,12.0,52,0.00,,---,0.00,VWS V14.01,2013-03-29 20:25:00,
2013-03-29 13:30:00,58.0,41.0,30.07,SW,221,1.0,12.0,53,0.00,,---,0.00,VWS V14.01,2013-03-29 20:30:00,
2013-03-29 13:35:00,57.8,39.8,30.07,SSW,201,2.0,12.0,51,0.00,,---,0.00,VWS V14.01,2013-03-29 20:35:00,
2013-03-29 13:40:00,59.2,39.0,30.07,WSW,257,6.0,12.0,47,0.00,,---,0.00,VWS V14.01,2013-03-29 20:40:00,
2013-03-29 13:45:00,59.7,39.5,30.07,SSW,213,5.0,12.0,47,0.00,,---,0.00,VWS V14.01,2013-03-29 20:45:00,
2013-03-29 13:50:00,59.5,36.4,30.07,SSE,165,0.0,12.0,42,0.00,,---,0.00,VWS V14.01,2013-03-29 20:50:00,
2013-03-29 13:55:00,59.3,33.7,30.06,WSW,248,4.0,12.0,38,0.00,,---,0.00,VWS V14.01,2013-03-29 20:55:00,
2013-03-29 14:00:00,59.0,34.1,30.06,SSW,211,7.0,12.0,39,0.00,,---,0.00,VWS V14.01,2013-03-29 21:00:00,
2013-03-29 14:05:00,59.2,34.3,30.06,WSW,240,8.0,8.0,39,0.00,,---,0.00,VWS V14.01,2013-03-29 21:05:00,
2013-03-29 14:10:00,58.9,35.9,30.06,West,259,2.0,12.0,42,0.00,,---,0.00,VWS V14.01,2013-03-29 21:10:00,
2013-03-29 14:15:00,59.8,34.8,30.06,SW,235,7.0,12.0,39,0.00,,---,0.00,VWS V14.01,2013-03-29 21:15:00,
2013-03-29 14:20:00,59.9,33.6,30.06,SW,232,6.0,12.0,37,0.00,,---,0.00,VWS V14.01,2013-03-29 21:20:00,
2013-03-29 14:25:00,60.3,33.9,30.06,NNW,328,3.0,12.0,37,0.00,,---,0.00,VWS V14.01,2013-03-29 21:25:00,
2013-03-29 14:30:00,60.2,32.5,30.06,SW,234,1.0,12.0,35,0.00,,---,0.00,VWS V14.01,2013-03-29 21:30:00,
2013-03-29 14:35:00,61.1,36.0,30.06,SSW,198,3.0,12.0,39,0.00,,---,0.00,VWS V14.01,2013-03-29 21:35:00,
2013-03-29 14:40:00,59.9,34.9,30.06,South,184,4.0,12.0,39,0.00,,---,0.00,VWS V14.01,2013-03-29 21:40:00,
2013-03-29 14:45:00,60.1,34.4,30.06,WSW,241,5.0,12.0,38,0.00,,---,0.00,VWS V14.01,2013-03-29 21:45:00,
2013-03-29 14:50:00,60.4,34.7,30.06,WSW,245,5.0,12.0,38,0.00,,---,0.00,VWS V14.01,2013-03-29 21:50:00,
2013-03-29 14:55:00,61.2,34.7,30.05,South,178,10.0,15.0,37,0.00,,---,0.00,VWS V14.01,2013-03-29 21:55:00,
2013-03-29 15:00:00,60.8,34.4,30.05,SW,215,0.0,15.0,37,0.00,,---,0.00,VWS V14.01,2013-03-29 22:00:00,
2013-03-29 15:05:00,60.3,33.3,30.06,SW,236,3.0,12.0,36,0.00,,---,0.00,VWS V14.01,2013-03-29 22:05:00,
2013-03-29 15:10:00,58.4,34.8,30.06,SW,214,4.0,12.0,41,0.00,,---,0.00,VWS V14.01,2013-03-29 22:10:00,
2013-03-29 15:15:00,59.9,34.2,30.05,SSW,195,6.0,12.0,38,0.00,,---,0.00,VWS V14.01,2013-03-29 22:15:00,
2013-03-29 15:20:00,60.3,35.3,30.05,South,186,4.0,12.0,39,0.00,,---,0.00,VWS V14.01,2013-03-29 22:20:00,
2013-03-29 15:25:00,59.6,34.6,30.05,West,265,1.0,16.0,39,0.00,,---,0.00,VWS V14.01,2013-03-29 22:25:00,
2013-03-29 15:30:00,58.5,34.9,30.05,ENE,75,2.0,16.0,41,0.00,,---,0.00,VWS V14.01,2013-03-29 22:30:00,
2013-03-29 15:35:00,58.8,34.5,30.05,WSW,243,4.0,16.0,40,0.00,,---,0.00,VWS V14.01,2013-03-29 22:35:00,
2013-03-29 15:40:00,60.7,36.9,30.05,West,276,2.0,16.0,41,0.00,,---,0.00,VWS V14.01,2013-03-29 22:40:00,
2013-03-29 15:45:00,60.4,36.6,30.05,NW,312,5.0,16.0,41,0.00,,---,0.00,VWS V14.01,2013-03-29 22:45:00,
2013-03-29 15:50:00,61.1,35.3,30.05,SW,215,9.0,16.0,38,0.00,,---,0.00,VWS V14.01,2013-03-29 22:50:00,
2013-03-29 15:55:00,60.4,34.7,30.05,SSW,207,6.0,16.0,38,0.00,,---,0.00,VWS V14.01,2013-03-29 22:55:00,
2013-03-29 16:00:00,59.0,34.7,30.06,SSW,211,10.0,16.0,40,0.00,,---,0.00,VWS V14.01,2013-03-29 23:00:00,
2013-03-29 16:05:00,58.4,34.8,30.06,SSW,194,2.0,7.0,41,0.00,,---,0.00,VWS V14.01,2013-03-29 23:05:00,
2013-03-29 16:10:00,58.4,34.2,30.05,SW,217,6.0,9.0,40,0.00,,---,0.00,VWS V14.01,2013-03-29 23:10:00,
2013-03-29 16:15:00,59.3,36.2,30.05,SW,232,2.0,9.0,42,0.00,,---,0.00,VWS V14.01,2013-03-29 23:15:00,
2013-03-29 16:20:00,59.7,34.1,30.05,SW,230,1.0,9.0,38,0.00,,---,0.00,VWS V14.01,2013-03-29 23:20:00,
2013-03-29 16:25:00,58.7,34.5,30.05,South,176,1.0,9.0,40,0.00,,---,0.00,VWS V14.01,2013-03-29 23:25:00,
2013-03-29 16:30:00,58.7,35.7,30.05,WSW,246,1.0,9.0,42,0.00,,---,0.00,VWS V14.01,2013-03-29 23:30:00,
2013-03-29 16:35:00,60.5,35.4,30.06,SSW,210,6.0,9.0,39,0.00,,---,0.00,VWS V14.01,2013-03-29 23:35:00,
2013-03-29 16:40:00,59.5,34.5,30.06,SSW,204,4.0,9.0,39,0.00,,---,0.00,VWS V14.01,2013-03-29 23:40:00,
2013-03-29 16:45:00,58.4,34.2,30.06,SSW,196,4.0,9.0,40,0.00,,---,0.00,VWS V14.01,2013-03-29 23:45:00,
2013-03-29 16:50:00,58.2,34.6,30.05,SSW,203,2.0,9.0,41,0.00,,---,0.00,VWS V14.01,2013-03-29 23:50:00,
2013-03-29 16:55:00,58.0,35.7,30.05,SSW,209,1.0,9.0,43,0.00,,---,0.00,VWS V14.01,2013-03-29 23:55:00,
2013-03-29 17:00:00,57.4,35.1,30.05,WSW,239,1.0,9.0,43,0.00,,---,0.00,VWS V14.01,2013-03-30 00:00:00,
2013-03-29 17:05:00,56.9,35.2,30.05,South,181,2.0,6.0,44,0.00,,---,0.00,VWS V14.01,2013-03-30 00:05:00,
2013-03-29 17:10:00,56.8,35.1,30.05,SW,220,4.0,6.0,44,0.00,,---,0.00,VWS V14.01,2013-03-30 00:10:00,
2013-03-29 17:15:00,58.0,35.1,30.05,WNW,292,1.0,6.0,42,0.00,,---,0.00,VWS V14.01,2013-03-30 00:15:00,
2013-03-29 17:20:00,58.5,35.5,30.05,ENE,73,1.0,8.0,42,0.00,,---,0.00,VWS V14.01,2013-03-30 00:20:00,
2013-03-29 17:25:00,58.8,35.2,30.05,South,171,1.0,8.0,41,0.00,,---,0.00,VWS V14.01,2013-03-30 00:25:00,
2013-03-29 17:30:00,57.7,34.2,30.05,West,260,1.0,8.0,41,0.00,,---,0.00,VWS V14.01,2013-03-30 00:30:00,
2013-03-29 17:35:00,56.9,35.2,30.05,South,186,0.0,8.0,44,0.00,,---,0.00,VWS V14.01,2013-03-30 00:35:00,
2013-03-29 17:40:00,57.1,34.8,30.05,SSW,212,2.0,8.0,43,0.00,,---,0.00,VWS V14.01,2013-03-30 00:40:00,
2013-03-29 17:45:00,57.7,35.4,30.05,SSW,202,0.0,8.0,43,0.00,,---,0.00,VWS V14.01,2013-03-30 00:45:00,
2013-03-29 17:50:00,57.7,37.1,30.05,SW,224,6.0,8.0,46,0.00,,---,0.00,VWS V14.01,2013-03-30 00:50:00,
2013-03-29 17:55:00,57.3,34.4,30.05,SSW,211,1.0,8.0,42,0.00,,---,0.00,VWS V14.01,2013-03-30 00:55:00,
2013-03-29 18:00:00,57.1,35.4,30.06,WNW,294,0.0,8.0,44,0.00,,---,0.00,VWS V14.01,2013-03-30 01:00:00,
2013-03-29 18:05:00,56.7,35.0,30.05,West,281,2.0,5.0,44,0.00,,---,0.00,VWS V14.01,2013-03-30 01:05:00,
2013-03-29 18:10:00,56.4,35.3,30.06,West,264,2.0,6.0,45,0.00,,---,0.00,VWS V14.01,2013-03-30 01:10:00,
2013-03-29 18:15:00,56.2,35.2,30.06,South,173,2.0,6.0,45,0.00,,---,0.00,VWS V14.01,2013-03-30 01:15:00,
2013-03-29 18:20:00,56.0,35.0,30.05,SSW,193,2.0,6.0,45,0.00,,---,0.00,VWS V14.01,2013-03-30 01:20:00,
2013-03-29 18:25:00,55.6,35.2,30.05,SSW,195,0.0,6.0,46,0.00,,---,0.00,VWS V14.01,2013-03-30 01:25:00,
2013-03-29 18:30:00,55.3,35.4,30.05,SSW,195,2.0,6.0,47,0.00,,---,0.00,VWS V14.01,2013-03-30 01:30:00,
2013-03-29 18:35:00,55.1,35.2,30.05,SSW,195,0.0,6.0,47,0.00,,---,0.00,VWS V14.01,2013-03-30 01:35:00,
2013-03-29 18:40:00,54.9,35.1,30.05,SSW,195,0.0,6.0,47,0.00,,---,0.00,VWS V14.01,2013-03-30 01:40:00,
2013-03-29 18:45:00,54.5,35.8,30.05,SSW,195,0.0,6.0,49,0.00,,---,0.00,VWS V14.01,2013-03-30 01:45:00,
2013-03-29 18:50:00,54.1,35.4,30.05,SSW,195,0.0,6.0,49,0.00,,---,0.00,VWS V14.01,2013-03-30 01:50:00,
2013-03-29 18:55:00,53.5,34.8,30.05,SSW,195,0.0,6.0,49,0.00,,---,0.00,VWS V14.01,2013-03-30 01:55:00,
2013-03-29 19:00:00,52.1,35.5,30.05,SSW,195,0.0,6.0,53,0.00,,---,0.00,VWS V14.01,2013-03-30 02:00:00,
2013-03-29 19:05:00,50.5,37.2,30.05,SSW,195,0.0,0.0,60,0.00,,---,0.00,VWS V14.01,2013-03-30 02:05:00,
2013-03-29 19:10:00,49.6,36.3,30.05,SSW,195,0.0,0.0,60,0.00,,---,0.00,VWS V14.01,2013-03-30 02:10:00,
2013-03-29 19:15:00,49.1,35.8,30.05,SSW,195,0.0,0.0,60,0.00,,---,0.00,VWS V14.01,2013-03-30 02:15:00,
2013-03-29 19:20:00,48.2,35.4,30.06,SSW,195,0.0,0.0,61,0.00,,---,0.00,VWS V14.01,2013-03-30 02:20:00,
2013-03-29 19:25:00,47.5,37.5,30.06,SSW,195,0.0,0.0,68,0.00,,---,0.00,VWS V14.01,2013-03-30 02:25:00,
2013-03-29 19:30:00,46.9,36.5,30.05,SSW,195,0.0,0.0,67,0.00,,---,0.00,VWS V14.01,2013-03-30 02:30:00,
2013-03-29 19:35:00,45.9,35.2,30.05,SSW,195,0.0,0.0,66,0.00,,---,0.00,VWS V14.01,2013-03-30 02:35:00,
2013-03-29 19:40:00,45.3,35.7,30.05,SSW,195,0.0,0.0,69,0.00,,---,0.00,VWS V14.01,2013-03-30 02:40:00,
2013-03-29 19:45:00,44.9,34.6,30.06,SSW,195,0.0,0.0,67,0.00,,---,0.00,VWS V14.01,2013-03-30 02:45:00,
2013-03-29 19:50:00,44.3,34.4,30.06,SSW,195,0.0,0.0,68,0.00,,---,0.00,VWS V14.01,2013-03-30 02:50:00,
2013-03-29 19:55:00,43.9,34.4,30.06,SSW,195,0.0,0.0,69,0.00,,---,0.00,VWS V14.01,2013-03-30 02:55:00,
2013-03-29 20:00:00,43.6,34.8,30.06,SSW,195,0.0,0.0,71,0.00,,---,0.00,VWS V14.01,2013-03-30 03:00:00,
2013-03-29 20:05:00,42.9,33.8,30.07,SSW,195,0.0,0.0,70,0.00,,---,0.00,VWS V14.01,2013-03-30 03:05:00,
2013-03-29 20:10:00,42.8,34.8,30.07,SSW,195,0.0,0.0,73,0.00,,---,0.00,VWS V14.01,2013-03-30 03:10:00,
2013-03-29 20:15:00,42.3,34.3,30.07,SSW,195,0.0,0.0,73,0.00,,---,0.00,VWS V14.01,2013-03-30 03:15:00,
2013-03-29 20:20:00,41.9,33.9,30.07,SSW,195,0.0,0.0,73,0.00,,---,0.00,VWS V14.01,2013-03-30 03:20:00,
2013-03-29 20:25:00,41.5,33.8,30.07,SSW,195,0.0,0.0,74,0.00,,---,0.00,VWS V14.01,2013-03-30 03:25:00,
2013-03-29 20:30:00,41.2,34.2,30.08,SSW,195,0.0,0.0,76,0.00,,---,0.00,VWS V14.01,2013-03-30 03:30:00,
2013-03-29 20:35:00,41.0,34.0,30.08,SSW,195,0.0,0.0,76,0.00,,---,0.00,VWS V14.01,2013-03-30 03:35:00,
2013-03-29 20:41:00,40.7,33.7,30.08,SSW,195,0.0,0.0,76,0.00,,---,0.00,VWS V14.01,2013-03-30 03:41:00,
2013-03-29 20:46:00,40.5,34.2,30.08,SSW,195,0.0,0.0,78,0.00,,---,0.00,VWS V14.01,2013-03-30 03:46:00,
2013-03-29 20:51:00,40.3,34.6,30.08,SSW,195,0.0,0.0,80,0.00,,---,0.00,VWS V14.01,2013-03-30 03:51:00,
2013-03-29 20:56:00,40.0,34.7,30.08,SSW,195,0.0,0.0,81,0.00,,---,0.00,VWS V14.01,2013-03-30 03:56:00,
2013-03-29 21:00:00,39.7,33.7,30.08,SSW,195,0.0,0.0,79,0.00,,---,0.00,VWS V14.01,2013-03-30 04:00:00,
2013-03-29 21:05:00,39.2,33.6,30.08,SSW,195,0.0,0.0,80,0.00,,---,0.00,VWS V14.01,2013-03-30 04:05:00,
2013-03-29 21:10:00,38.8,33.2,30.09,SSW,195,0.0,0.0,80,0.00,,---,0.00,VWS V14.01,2013-03-30 04:10:00,
2013-03-29 21:15:00,38.3,33.0,30.09,SSW,195,0.0,0.0,81,0.00,,---,0.00,VWS V14.01,2013-03-30 04:15:00,
2013-03-29 21:20:00,37.9,33.2,30.09,SSW,195,0.0,0.0,83,0.00,,---,0.00,VWS V14.01,2013-03-30 04:20:00,
2013-03-29 21:25:00,37.5,32.8,30.09,SSW,195,0.0,0.0,83,0.00,,---,0.00,VWS V14.01,2013-03-30 04:25:00,
2013-03-29 21:30:00,37.3,32.9,30.09,SSW,195,0.0,0.0,84,0.00,,---,0.00,VWS V14.01,2013-03-30 04:30:00,
2013-03-29 21:35:00,37.2,33.1,30.09,SSW,195,0.0,0.0,85,0.00,,---,0.00,VWS V14.01,2013-03-30 04:35:00,
2013-03-29 21:40:00,37.1,32.4,30.10,SSW,195,0.0,0.0,83,0.00,,---,0.00,VWS V14.01,2013-03-30 04:40:00,
2013-03-29 21:45:00,37.0,32.6,30.10,SSW,195,0.0,0.0,84,0.00,,---,0.00,VWS V14.01,2013-03-30 04:45:00,
2013-03-29 21:50:00,37.0,32.6,30.10,SSW,195,0.0,0.0,84,0.00,,---,0.00,VWS V14.01,2013-03-30 04:50:00,
2013-03-29 21:55:00,36.8,32.4,30.10,SSW,195,0.0,0.0,84,0.00,,---,0.00,VWS V14.01,2013-03-30 04:55:00,
2013-03-29 22:00:00,36.6,32.5,30.10,SSW,195,0.0,0.0,85,0.00,,---,0.00,VWS V14.01,2013-03-30 05:00:00,
2013-03-29 22:05:00,36.4,32.3,30.10,SSW,195,0.0,0.0,85,0.00,,---,0.00,VWS V14.01,2013-03-30 05:05:00,
2013-03-29 22:10:00,36.2,32.4,30.10,SSW,195,0.0,0.0,86,0.00,,---,0.00,VWS V14.01,2013-03-30 05:10:00,
2013-03-29 22:15:00,36.0,32.5,30.10,SSW,195,0.0,0.0,87,0.00,,---,0.00,VWS V14.01,2013-03-30 05:15:00,
2013-03-29 22:20:00,36.0,32.8,30.10,SSW,195,0.0,0.0,88,0.00,,---,0.00,VWS V14.01,2013-03-30 05:20:00,
2013-03-29 22:25:00,35.7,32.2,30.10,SSW,195,0.0,0.0,87,0.00,,---,0.00,VWS V14.01,2013-03-30 05:25:00,
2013-03-29 22:30:00,35.6,32.1,30.10,SSW,195,0.0,0.0,87,0.00,,---,0.00,VWS V14.01,2013-03-30 05:30:00,
2013-03-29 22:35:00,35.2,31.7,30.10,SSW,195,0.0,0.0,87,0.00,,---,0.00,VWS V14.01,2013-03-30 05:35:00,
2013-03-29 22:40:00,34.9,31.7,30.10,SSW,195,0.0,0.0,88,0.00,,---,0.00,VWS V14.01,2013-03-30 05:40:00,
2013-03-29 22:45:00,34.8,31.6,30.10,SSW,195,0.0,0.0,88,0.00,,---,0.00,VWS V14.01,2013-03-30 05:45:00,
2013-03-29 22:50:00,34.6,31.7,30.10,SSW,195,0.0,0.0,89,0.00,,---,0.00,VWS V14.01,2013-03-30 05:50:00,
2013-03-29 22:55:00,34.5,31.6,30.10,SSW,195,0.0,0.0,89,0.00,,---,0.00,VWS V14.01,2013-03-30 05:55:00,
2013-03-29 23:00:00,34.2,31.3,30.11,SSW,195,0.0,0.0,89,0.00,,---,0.00,VWS V14.01,2013-03-30 06:00:00,
2013-03-29 23:05:00,34.0,31.1,30.11,SSW,195,0.0,0.0,89,0.00,,---,0.00,VWS V14.01,2013-03-30 06:05:00,
2013-03-29 23:10:00,33.7,30.8,30.11,SSW,195,0.0,0.0,89,0.00,,---,0.00,VWS V14.01,2013-03-30 06:10:00,
2013-03-29 23:15:00,33.6,31.0,30.11,SSW,195,0.0,0.0,90,0.00,,---,0.00,VWS V14.01,2013-03-30 06:15:00,
2013-03-29 23:20:00,33.5,30.9,30.11,SSW,195,0.0,0.0,90,0.00,,---,0.00,VWS V14.01,2013-03-30 06:20:00,
2013-03-29 23:25:00,33.6,31.3,30.11,SSW,195,0.0,0.0,91,0.00,,---,0.00,VWS V14.01,2013-03-30 06:25:00,
2013-03-29 23:30:00,33.6,31.3,30.11,SSW,195,0.0,0.0,91,0.00,,---,0.00,VWS V14.01,2013-03-30 06:30:00,
2013-03-29 23:35:00,33.4,31.1,30.11,SSW,195,0.0,0.0,91,0.00,,---,0.00,VWS V14.01,2013-03-30 06:35:00,
2013-03-29 23:40:00,33.3,31.0,30.11,SSW,195,0.0,0.0,91,0.00,,---,0.00,VWS V14.01,2013-03-30 06:40:00,
2013-03-29 23:45:00,33.3,31.0,30.11,SSW,195,0.0,0.0,91,0.00,,---,0.00,VWS V14.01,2013-03-30 06:45:00,
2013-03-29 23:50:00,33.1,30.8,30.11,SSW,195,0.0,0.0,91,0.00,,---,0.00,VWS V14.01,2013-03-30 06:50:00,
2013-03-29 23:55:00,33.0,30.9,30.11,SSW,195,0.0,0.0,92,0.00,,---,0.00,VWS V14.01,2013-03-30 06:55:00,